This is the latest recevied weather packets stored in our database for station/object DD3UTS-13. If no packets are shown the sender has not sent any weather packets the latest 10 day(s).
| Time | Temp. | Humidity | Pressure | Rain* | Wind** | Luminosity | Snow |
|---|---|---|---|---|---|---|---|
| 1778407231 | 18.89° C | 50% | 1012.7 hPa | 0 mm | - | 616 W/m² | - |
| 1778406932 | 18.89° C | 49% | 1012.7 hPa | 0 mm | - | 265 W/m² | - |
| 1778406631 | 19.44° C | 51% | 1012.8 hPa | 0 mm | - | 615 W/m² | - |
| 1778406332 | 18.89° C | 51% | 1012.7 hPa | 0 mm | - | 587 W/m² | - |
| 1778406032 | 19.44° C | 49% | 1012.7 hPa | 0 mm | - | 236 W/m² | - |
| 1778405732 | 20° C | 48% | 1012.8 hPa | 0 mm | - | 532 W/m² | - |
| 1778405431 | 20° C | 48% | 1012.8 hPa | 0 mm | - | 532 W/m² | - |
| 1778405132 | 20° C | 49% | 1012.8 hPa | 0 mm | - | 512 W/m² | - |
| 1778404836 | 20° C | 49% | 1012.8 hPa | 0 mm | - | 512 W/m² | - |
| 1778404232 | 19.44° C | 48% | 1012.8 hPa | 0 mm | - | 517 W/m² | - |
| 1778403932 | 20° C | 47% | 1012.9 hPa | 0 mm | - | 516 W/m² | - |
| 1778403632 | 20° C | 49% | 1012.9 hPa | 0 mm | - | 509 W/m² | - |
| 1778403331 | 20° C | 46% | 1013 hPa | 0 mm | - | 514 W/m² | - |
| 1778403031 | 19.44° C | 47% | 1013.1 hPa | 0 mm | - | 511 W/m² | - |
| 1778402731 | 19.44° C | 49% | 1013.2 hPa | 0 mm | - | 514 W/m² | - |
| 1778402432 | 19.44° C | 51% | 1013.2 hPa | 0 mm | - | 497 W/m² | - |
| 1778402132 | 18.89° C | 52% | 1013.2 hPa | 0 mm | - | 484 W/m² | - |
| 1778401833 | 18.33° C | 54% | 1013.2 hPa | 0 mm | - | 483 W/m² | - |
| 1778401532 | 18.33° C | 53% | 1013.2 hPa | 0 mm | - | 473 W/m² | - |
| 1778401232 | 17.78° C | 54% | 1013.3 hPa | 0 mm | - | 473 W/m² | - |
| 1778400932 | 18.33° C | 53% | 1013.3 hPa | 0 mm | - | 465 W/m² | - |
| 1778400632 | 18.89° C | 53% | 1013.2 hPa | 0 mm | - | 463 W/m² | - |
| 1778400332 | 18.33° C | 54% | 1013.3 hPa | 0 mm | - | 458 W/m² | - |
| 1778400032 | 18.33° C | 53% | 1013.4 hPa | 0 mm | - | 444 W/m² | - |
| 1778399732 | 18.33° C | 52% | 1013.4 hPa | 0 mm | - | 450 W/m² | - |
* Rain latest 24 hours (hover to see other rain measurements)
** Current wind speed in m/s (hover to see current wind gust speed)